User: anonymous   Login
Location: Unspecified
(0.0000°N, 0.0000°E)
Time: 02:12:41
(UTC+00:00)
Language:

ONEWEB-0035 - Orbit

View from above orbital plane
View from above orbital plane
View from above satellite
View from above satellite

Ground track
Ground track

The orbit is defined by the following mean orbital elements,

1 45143U          26145.24206635 +.00000000 +00000-0 -47146-1 0 00000
2 45143  87.8848  40.8378 0001801  72.5340 287.5984 13.10470784    01
Epoch (UTC): 25 May 2026 05:48:34
Eccentricity: 0.0001801
inclination: 87.8848°
perigee height: 1220 km
apogee height: 1223 km
right ascension of ascending node: 40.8378°
argument of perigee: 72.5340°
revolutions per day: 13.10470784
mean anomaly at epoch: 287.5984°

The dashed part of the orbit path shows where the satellite is in the earth's shadow,  

DLR